Tracking 30415 objects as of 15-May-2025
HD Live streaming from Space Station
objects crossing your sky now

THOR ABLESTAR DEB

Track THOR ABLESTAR DEB now!
10-day predictions


NORAD ID: 318
Int'l Code: 1961-015CU
Perigee: 361.1 km
Apogee: 397.1 km
Inclination: 66.5 °
Period: 92.0 minutes
Semi major axis: 6750 km
RCS: 0.0477 m2 (small)
Launch date: June 29, 1961
Source: United States (US)
Launch site: AIR FORCE EASTERN TEST RANGE (AFETR)

Note: This is SATELLITE DEBRIS
Your satellite tracking list
Your tracking list is empty




NASA's NSSDC Master Catalog

Two Line Element Set (TLE):
1 00318U 61015CU  25134.69772607  .00204225  00000-0  19491-2 0  9995
2 00318  66.5233 246.4923 0026668 297.4016  62.4436 15.65458031354573
Source of the keplerian elements: AFSPC